Voltar ao catálogo

COSMOS 1652

GLONASS

AtivoNavegaçãoMEO
NORAD 15699·PAYLOAD·🇷🇺 Russia

Lançado May 17, 1985 de Baikonur Cosmodrome

Loading…

Próximas Passagens (próximas 24 horas)

TLE

AtualizadoSource: Space-Track

Época: Sep 11, 2026, 00:11 UTC

1 15699U 85037C   26254.00774279  .00000011  00000-0  00000-0 0  9990
2 15699  64.9276  70.1941 0018512  28.0852   3.6753  2.13067316321492

Acompanhe COSMOS 1652 em tempo real com AllMySat

Download on the App Store